Dewpoint
49 49 49 48 50 46 38 36 33 39 43 34 36 33 34 35 33 35 32 30 30 29 30 29 30 29 31 35 37 33 34 31 28 27 30 30 31 28 25 24 24 24 23 23
49 49 49 48 50 44 37 34 35 41 41 31 32 32 33 33 32 32 31 31 33 33 31 28 31 31 33 36 36 32 34 30 25 20 24 28 27 28 26 27 26 24 21 21
49 49 49 48 48 46 37 35 28 36 37 34 32 30 31 31 33 32 31 31 31 31 29 31 29 30 33 36 36 36 34 29 25 18 19 26 25 25 26 27 25 21 21 23
48 48 49 48 46 46 38 35 32 33 31 30 32 31 31 30 30 32 31 29 30 29 26 26 26 28 28 34 34 34 32 28 26 25 25 26 26 25 24 25 24 21 19 24
48 48 49 49 45 43 39 33 33 33 31 30 31 30 30 30 31 31 29 28 29 29 26 27 25 28 26 26 28 30 31 29 26 24 24 26 24 24 23 23 24 26 24 25
49 49 49 48 45 41 38 39 37 31 31 30 28 29 30 30 32 32 32 31 29 27 29 32 32 32 31 30 28 27 28 27 25 20 19 18 16 18 21 22 26 25 23 22
48 49 49 49 46 41 39 38 35 28 25 29 29 31 31 29 31 31 31 32 30 31 35 34 33 33 32 32 31 29 26 26 26 24 19 8 11 23 24 23 25 27 26 26
47 48 49 49 46 42 39 39 37 31 25 29 29 30 30 30 30 30 31 31 33 34 30 26 21 20 22 25 28 29 28 26 23 19 15 10 12 15 21 20 14 22 26 27
47 47 49 49 47 42 38 38 38 34 27 23 29 30 31 27 28 28 27 32 35 31 27 23 16 8 15 15 18 26 27 27 24 20 12 -3 2 21 26 25 12 20 26 26
46 47 49 50 47 43 39 37 38 35 31 30 31 29 28 32 31 27 28 30 32 30 25 19 17 16 21 14 14 18 22 23 22 21 17 13 16 26 26 11 1 19 28 29
44 46 48 49 47 43 39 37 38 37 33 32 32 32 32 33 32 27 28 29 29 28 23 21 20 21 19 21 20 16 14 15 17 20 18 7 23 27 17 16 17 26 30 31
44 45 46 48 47 43 39 36 37 36 34 33 33 33 33 33 34 33 33 28 30 30 25 25 25 22 23 18 10 19 14 14 11 16 13 18 26 24 25 21 24 27 28 30
43 44 46 48 46 41 36 35 37 36 34 34 32 31 32 33 33 35 32 33 34 33 33 29 28 24 25 19 20 21 20 21 18 19 16 20 20 21 26 27 26 27 28 29
43 43 45 47 46 42 37 34 36 37 35 31 31 32 32 32 33 33 34 34 34 34 34 31 29 25 27 22 21 19 17 21 19 19 19 20 21 22 22 23 26 27 28 29
44 43 44 46 45 44 40 37 35 36 35 30 31 32 31 32 33 33 33 33 33 33 32 31 29 29 28 27 26 25 23 20 18 15 17 17 18 21 26 26 26 27 28 30
44 44 44 45 44 43 38 35 36 35 37 31 26 31 31 31 32 32 32 33 33 33 32 31 31 31 28 27 25 26 26 24 22 20 22 21 23 25 27 27 27 28 29 30
45 44 44 45 44 39 36 34 34 36 37 29 24 26 30 30 30 31 31 32 32 32 32 30 30 30 31 29 24 24 26 26 26 26 26 25 26 25 28 29 29 31 31 30
45 44 45 46 44 40 37 37 40 36 31 30 23 23 23 30 29 29 30 30 30 30 30 29 29 29 30 28 28 28 27 26 26 25 26 26 27 28 28 29 30 30 29 28
45 44 44 41 39 36 34 39 37 33 30 27 26 23 19 29 28 29 29 29 28 29 28 28 28 28 26 28 28 28 28 27 28 27 27 27 26 27 27 28 29 29 29 27
45 43 39 35 35 37 39 32 31 30 30 29 27 26 23 29 28 28 28 28 27 26 27 28 27 26 28 28 29 28 28 28 27 26 26 26 24 25 27 27 29 29 29 27
42 37 35 35 36 31 29 29 28 28 28 28 27 26 24 28 26 27 29 27 27 24 25 26 25 24 26 27 25 26 27 28 28 27 28 27 26 26 27 27 28 28 28 27
40 37 35 32 30 28 27 26 25 26 26 26 25 25 26 27 29 27 27 25 24 21 24 23 21 23 25 24 23 24 24 24 23 24 24 25 26 27 28 28 28 28 28 26
40 36 33 32 29 25 24 21 25 24 25 25 25 25 27 28 28 26 26 23 22 23 21 19 21 21 20 19 19 19 22 24 26 27 27 27 27 27 28 27 28 28 27 25
33 31 27 27 25 24 24 24 25 26 25 25 26 25 25 27 26 25 22 24 23 21 18 17 21 20 20 20 19 19 21 25 26 27 27 27 26 26 27 27 27 27 25 22
31 31 26 27 27 24 24 25 23 24 26 26 24 25 24 24 24 24 22 19 19 19 16 19 21 21 18 12 15 17 21 24 25 25 26 26 26 25 25 26 27 25 23 20
32 30 29 26 24 25 23 22 24 27 27 26 25 22 21 21 22 21 20 18 14 15 20 22 20 16 13 13 15 16 20 23 24 24 24 25 25 25 25 24 25 23 21 20
29 28 31 27 24 25 24 23 25 28 26 24 24 21 18 21 19 18 20 17 16 19 20 20 20 17 12 15 16 16 19 23 24 24 24 23 23 23 22 22 23 22 20 19
Wind_Speed
24 26 27 26 24 21 8 4 8 13 3 7 4 6 4 2 2 1 2 3 4 4 4 3 3 3 2 6 5 2 2 2 4 3 2 2 4 4 2 4 2 4 3 4
24 26 27 27 22 16 2 5 4 5 4 8 8 4 4 4 2 4 2 3 2 2 2 3 2 1 1 6 4 2 4 1 3 2 1 3 5 5 3 4 2 6 3 2
23 26 26 25 21 17 3 3 5 7 7 2 4 4 7 4 3 4 3 4 2 2 3 4 3 2 2 6 3 2 3 2 6 4 3 1 5 7 6 7 4 2 10 5
21 24 25 24 23 13 2 5 4 1 6 10 9 6 5 6 5 6 7 4 7 3 3 2 2 1 1 1 1 2 2 5 5 14 16 12 13 13 9 10 9 7 3 8
20 21 24 25 27 9 6 2 4 2 3 3 3 5 6 6 4 5 5 4 3 4 3 1 0 1 2 1 2 3 1 4 4 8 2 10 15 16 16 16 14 15 16 16
19 20 21 25 26 11 5 2 2 3 2 2 2 3 2 4 1 1 1 2 3 3 3 4 7 6 4 3 2 4 3 3 4 5 4 10 14 19 24 12 10 12 11 6
17 17 19 20 20 12 3 2 1 1 2 1 3 5 4 1 2 2 2 1 1 1 6 3 2 3 6 6 8 6 2 1 2 7 7 4 1 1 2 16 10 17 11 7
15 17 16 18 18 12 5 2 2 2 3 2 3 4 2 2 2 3 3 2 0 4 3 4 4 2 2 3 5 11 8 3 4 4 5 13 4 5 7 8 8 16 22 15
14 13 16 15 15 10 5 3 1 2 3 4 2 2 2 2 2 2 3 1 1 2 2 2 3 3 2 2 2 3 5 4 5 2 5 5 1 4 4 3 8 7 12 15
8 12 13 13 13 9 3 3 1 1 3 1 3 3 3 3 1 4 3 1 1 0 2 2 3 3 1 3 3 4 4 6 14 13 8 11 6 9 7 3 1 5 10 11
9 9 9 8 10 9 2 2 2 2 1 5 6 5 4 3 3 2 1 2 1 1 4 4 3 4 2 3 4 4 8 7 8 6 8 9 10 8 7 2 2 3 8 11
7 8 9 6 7 9 2 0 1 3 3 4 3 6 5 3 4 4 4 2 1 2 0 2 1 4 4 4 5 3 6 8 3 11 8 1 16 5 9 0 1 5 8 9
9 8 9 5 6 7 4 1 2 1 1 4 3 5 1 3 6 4 5 3 3 3 1 2 1 7 3 5 9 4 8 8 8 5 5 14 19 20 15 10 12 7 7 6
8 9 10 8 4 2 3 3 1 0 2 3 3 2 2 1 3 3 3 0 4 4 2 4 5 5 7 5 6 9 9 9 9 15 25 22 20 15 17 14 12 13 9 9
7 9 10 10 8 4 1 2 4 4 3 4 6 2 2 3 6 6 4 3 2 3 3 5 6 3 4 4 5 19 16 15 15 12 9 13 7 2 1 6 8 10 15 12
9 5 8 9 9 6 3 4 3 3 1 2 6 0 3 3 6 7 6 5 3 1 3 4 4 2 3 6 8 10 16 15 22 15 4 6 6 7 6 9 9 7 11 10
10 6 5 6 5 2 3 3 4 4 0 3 7 5 3 5 4 3 3 3 3 4 3 5 4 5 6 6 13 5 10 16 16 14 5 10 9 7 5 3 4 3 4 6
10 5 4 6 2 5 7 2 6 3 1 2 6 6 3 6 5 5 3 4 3 5 4 2 5 4 7 13 22 13 7 6 11 14 13 13 5 8 8 2 3 5 7 9
8 4 1 1 2 3 1 3 5 2 3 4 5 4 4 3 1 3 4 3 4 2 6 5 6 9 15 22 19 15 12 8 4 3 5 5 9 12 10 8 9 10 11 11
10 3 1 4 2 3 5 1 1 2 4 4 7 2 5 5 3 3 5 3 3 4 5 3 8 14 22 24 23 17 17 14 12 10 14 10 10 11 11 14 13 13 13 12
3 5 4 1 1 2 0 3 4 3 5 6 6 12 9 6 5 6 5 4 4 4 2 4 5 10 11 7 10 11 13 19 18 17 15 13 11 10 8 12 14 13 13 15
10 7 4 2 2 2 3 5 2 8 8 5 4 5 4 4 3 4 4 4 4 7 3 3 6 10 11 9 8 8 6 7 10 12 13 13 14 14 10 8 11 14 13 12
5 3 3 4 3 8 9 11 7 6 6 8 6 4 5 2 3 1 4 6 8 5 4 6 11 7 5 6 5 8 5 4 4 6 7 8 9 8 8 9 8 10 13 13
7 7 8 10 9 10 12 14 5 4 4 12 9 6 4 3 5 3 5 3 3 4 6 10 8 8 10 5 4 5 4 6 5 5 4 5 7 7 7 9 8 11 15 15
7 7 8 17 12 6 4 6 3 3 7 11 6 4 4 3 4 4 1 3 6 7 8 5 6 4 5 5 5 7 8 8 8 8 9 10 10 10 9 10 11 14 13 14
10 7 9 4 5 11 8 7 7 7 12 3 1 3 4 8 6 7 11 5 9 5 7 8 5 5 8 7 7 8 8 9 8 7 7 9 11 12 10 7 12 14 14 15
6 11 10 10 6 11 9 11 10 13 12 6 3 6 10 4 5 7 9 10 7 5 6 7 9 11 12 10 8 8 8 9 10 10 9 10 7 6 9 15 13 12 13 13
Wind_Direction
5 6 1 358 355 350 36 41 54 342 318 60 21 63 90 136 80 207 121 97 105 147 164 114 122 134 200 174 168 101 38 86 249 225 158 246 243 221 245 249 189 255 283 299
3 5 6 6 9 9 12 51 23 351 21 73 52 51 66 57 69 45 96 102 72 157 124 117 101 127 47 164 173 156 170 206 312 197 212 185 222 191 211 213 242 238 272 33
14 5 7 9 10 12 4 71 43 9 57 92 69 70 31 71 44 61 44 57 101 118 68 44 116 129 147 191 207 182 178 250 251 269 312 339 245 211 198 203 218 232 247 279
18 13 6 5 5 357 55 33 96 47 9 25 47 56 18 32 30 18 25 67 40 39 76 63 58 5 11 138 101 144 237 269 239 262 264 249 256 259 232 212 238 241 340 244
7 18 13 4 2 9 81 92 136 149 108 318 19 33 25 35 7 1 13 65 23 51 96 100 107 337 218 207 159 209 208 283 309 296 294 232 251 249 249 247 250 252 260 268
4 5 17 16 8 20 54 48 79 310 6 97 93 37 23 34 315 102 48 334 318 338 9 300 290 254 232 185 210 202 213 274 325 279 341 311 276 252 225 220 221 226 227 252
0 4 5 19 26 27 75 33 319 20 78 20 129 163 173 166 346 303 298 228 254 17 304 262 192 244 257 245 237 231 215 240 238 283 313 261 347 116 213 215 239 222 242 229
359 356 2 7 18 34 64 58 358 345 135 162 217 211 235 258 217 218 238 213 338 323 337 315 303 229 221 209 222 218 218 222 256 267 270 287 245 206 193 197 266 231 230 231
354 359 351 359 10 20 88 64 348 33 322 222 125 180 241 256 234 257 238 161 34 61 26 316 297 300 321 253 216 89 166 242 249 236 276 268 88 164 160 156 269 196 209 215
1 353 351 350 1 13 72 69 9 54 316 252 185 202 195 140 322 281 298 293 171 246 179 225 239 268 258 263 242 189 190 211 229 234 252 274 197 155 146 208 119 180 198 200
339 349 347 349 353 0 1 102 55 8 287 276 207 198 184 164 193 245 64 294 185 199 206 208 203 228 215 263 248 210 210 197 213 189 225 271 145 124 199 13 115 178 198 204
325 331 339 353 351 349 326 117 266 138 196 273 216 255 267 256 227 169 181 222 221 229 204 248 234 241 209 227 274 197 250 220 246 216 237 58 194 244 215 238 203 210 215 218
309 315 319 337 350 356 3 223 174 176 318 263 284 266 278 249 247 295 243 223 179 189 186 177 274 259 175 236 235 242 230 204 235 282 237 245 239 243 250 244 243 231 226 217
291 305 310 317 337 347 350 302 282 145 108 277 258 159 249 336 189 231 309 120 99 98 162 221 231 239 192 242 276 241 239 171 223 257 273 272 265 242 266 269 260 249 218 213
264 296 303 314 320 321 5 260 237 267 265 275 276 253 145 149 180 178 163 180 167 180 196 209 233 239 239 236 270 249 216 225 212 241 244 250 269 184 232 288 291 257 230 225
246 251 289 304 311 313 305 293 207 229 270 265 283 243 183 117 142 153 160 166 168 229 244 236 238 252 235 264 254 244 212 226 230 245 239 241 297 295 265 279 294 266 227 219
233 251 265 281 285 320 236 295 318 156 170 278 291 252 173 150 133 128 146 154 189 205 222 229 237 213 203 245 252 248 234 235 245 247 252 272 253 278 353 294 303 225 182 176
227 234 254 290 253 283 278 213 151 144 350 276 263 270 234 180 156 159 146 167 183 214 255 230 216 190 216 247 246 257 260 271 270 251 222 250 282 281 273 249 220 204 185 179
195 204 179 105 210 229 276 101 108 105 212 256 225 235 263 167 115 118 142 160 223 161 236 233 191 217 225 230 248 244 241 227 245 143 191 231 250 266 257 232 222 216 205 199
143 134 185 255 235 156 141 52 262 199 224 235 245 248 225 165 180 171 145 158 203 238 228 145 235 256 256 248 239 241 231 206 194 222 246 238 249 251 240 227 221 214 207 199
157 169 226 93 302 200 124 227 207 181 245 224 235 204 185 201 174 179 220 181 158 236 211 219 261 267 253 232 241 246 247 217 210 225 241 235 232 224 227 220 215 212 208 202
167 143 85 125 200 210 213 222 224 208 235 199 210 203 206 168 237 188 193 198 155 234 145 234 257 256 264 251 248 228 220 209 220 221 234 231 227 227 233 235 223 217 209 200
85 116 157 183 190 233 214 201 217 227 203 179 166 160 165 154 220 193 178 193 225 134 206 234 240 267 272 257 267 272 268 238 250 260 250 230 220 211 222 239 232 213 206 200
148 177 198 204 209 230 206 204 201 204 172 159 155 135 179 162 185 187 230 210 159 231 234 238 248 253 255 252 237 264 241 220 217 225 203 176 186 211 221 230 228 205 206 200
180 171 219 223 227 241 255 223 193 193 152 142 134 114 158 173 203 210 163 228 243 233 242 239 279 244 188 221 229 233 236 230 214 194 203 209 208 218 234 227 215 210 204 193
186 197 236 233 228 237 212 202 219 174 152 139 224 161 180 223 198 182 213 203 227 242 228 259 284 222 208 211 228 240 234 232 244 229 232 236 229 230 240 237 219 212 202 197
214 219 205 203 255 229 226 186 182 152 152 206 185 214 222 132 216 225 195 212 220 247 270 278 254 246 229 225 226 238 238 236 235 239 236 243 265 259 250 247 234 218 210 207